CZ-6A DEB, 56582

Orbit data source: Space-Track

CZ-6A DEB, 56582 is space debris in SSO originally from a launch on Fri, 11 Nov 2022 UTC launched from the Taiyaun Space Center, China (TSC). Debris objects in space refer to the collection of defunct objects orbiting the Earth. Examples of debris include non-operational satellites, rocket bodies, and fragments generated from explosions, collisions, or faulty payload assembly.

Loading next visibility...
Identifier
56582, 2022-151ADE
Orbit
SSO
Country
Flag of CNCN / PRC
Related business
Manufacturer
SAST
Mission
Spacecraft
Bus & Motor
Unknown
Mass
Unknown
Launch date (UTC)
2022-11-11 (4 years ago)
Launch vehicle
Unknown
Launch site
Taiyaun Space Center, China (TSC)
Object type
Payload
Rocket body
Debris
Shape & HBR
Unknown shape, 0.1 m
Radar Cross Section
Small (<0.1 m²)

Expand to show TLE details & history
Last TLE update: 23 hours ago

TLE from 23 hours ago
0 CZ-6A DEB
1 56582U 22151ADE 26236.01278168  .00001056  00000-0  46669-3 0  9995
2 56582  98.7603 255.1458 0010131 122.9616 237.2538 14.25340152184554
Epoch: 2026-08-24T00:18Z
TLE epoch observation values (Epoch: 2026-08-24T00:18:24.337Z)
Latitude
-0.00007°
Longitude
-81.75618°
Altitude
814.213 km
Speed
7.444 km/s
True Right ascension
17h 00m 34s
True Declination
0° 00' 00"
Sunlit
Object was in daylight at epoch
Visualization orbit readout
Latitude
Unknown
Longitude
Unknown
Altitude
Unknown
Speed
Unknown
Apparent Right ascension
Unknown
Apparent Declination
Unknown
Sunlit
N/A
Visualization observer readout
Local Sidereal Time
14:12:43
Azimuth
Unknown
Elevation
Unknown
Doppler factor
Unknown
Orbital elements
Apogee altitude
811.78 km
Perigee altitude
797.226 km
Semi-major axis
7,182.64 km
Eccentricity
0.00101
Inclination
98.7603°
RAAN
255.1458°
Arg. of periapsis
122.9616°
True anomaly
237.15622°
Mean anomaly
237.2538°
Eccentric anomaly
237.20501°
Mean motion
3.56547 °/min
Orbital period
100.97 mins
BSTAR
0.00046669
Loading maneuver chart data...
Computing Atmospheric mass density...
Loading historical data...
Loading historical data...
Loading historical data...
Loading historical data...
Loading historical data...
Loading historical data...
Loading historical data...

Documentation

Showing up to 5 results
|